• In Belarus
  • List of Countries
  • For 7 days
  • Water Temperature
  • Satellite Maps
  • Weather Map
  • Weather Widgets
  • user-avatar
    Login

    Hourly Weather Rouyn-Noranda

    Today, 25 November, Saturday

    Time Temperature Precipitation Wind Pressure Humidity
    00:00 +3°C° 0.9 mm 4 mps 714 mmHg 95%
    01:00 +3°C° 0.9 mm 4 mps 714 mmHg 96%
    02:00 +1°C° 1.3 mm 4 mps 715 mmHg 96%
    03:00 +1°C° 1.3 mm 4 mps 715 mmHg 95%
    04:00 +1°C° 1.3 mm 3 mps 716 mmHg 95%
    05:00 -1°C° 0.3 mm 4 mps 716 mmHg 92%
    06:00 -2°C° 0.3 mm 4 mps 717 mmHg 89%
    07:00 -3°C° 0.3 mm 4 mps 718 mmHg 86%
    08:00 -4°C° 0 mm 4 mps 719 mmHg 84%
    09:00 -5°C° 0 mm 4 mps 720 mmHg 82%
    10:00 -7°C° 0 mm 4 mps 721 mmHg 80%
    11:00 -7°C° 0 mm 4 mps 722 mmHg 78%
    12:00 -7°C° 0 mm 4 mps 723 mmHg 76%
    13:00 -8°C° 0 mm 5 mps 724 mmHg 73%
    14:00 -8°C° 0 mm 4 mps 724 mmHg 74%
    15:00 -9°C° 0 mm 4 mps 725 mmHg 75%
    16:00 -9°C° 0 mm 4 mps 726 mmHg 76%
    17:00 -10°C° 0 mm 4 mps 727 mmHg 77%
    18:00 -10°C° 0 mm 4 mps 727 mmHg 79%
    19:00 -11°C° 0 mm 4 mps 728 mmHg 80%
    20:00 -11°C° 0 mm 4 mps 729 mmHg 81%
    21:00 -11°C° 0 mm 4 mps 730 mmHg 81%
    22:00 -11°C° 0 mm 4 mps 730 mmHg 81%
    23:00 -11°C° 0 mm 4 mps 731 mmHg 81%

    Tomorrow, 26 November, Sunday

    Time Temperature Precipitation Wind Pressure Humidity
    00:00 -12°C° 0 mm 4 mps 731 mmHg 81%
    01:00 -12°C° 0 mm 3 mps 731 mmHg 81%
    02:00 -12°C° 0 mm 3 mps 732 mmHg 81%
    03:00 -13°C° 0 mm 3 mps 732 mmHg 81%
    04:00 -13°C° 0 mm 3 mps 732 mmHg 82%
    05:00 -13°C° 0 mm 3 mps 732 mmHg 83%
    06:00 -13°C° 0 mm 2 mps 732 mmHg 85%
    07:00 -11°C° 0 mm 1 mps 732 mmHg 87%
    08:00 -13°C° 0 mm 2 mps 732 mmHg 84%
    09:00 -12°C° 0 mm 2 mps 732 mmHg 82%
    10:00 -12°C° 0 mm 2 mps 732 mmHg 80%
    11:00 -12°C° 0 mm 3 mps 731 mmHg 78%
    12:00 -10°C° 0 mm 3 mps 729 mmHg 77%
    13:00 -9°C° 0 mm 3 mps 728 mmHg 76%
    14:00 -9°C° 0.5 mm 3 mps 728 mmHg 81%
    15:00 -10°C° 0.5 mm 4 mps 727 mmHg 86%
    16:00 -9°C° 0.5 mm 4 mps 726 mmHg 91%
    17:00 -8°C° 0.4 mm 3 mps 726 mmHg 91%
    18:00 -7°C° 0.4 mm 3 mps 726 mmHg 92%
    19:00 -7°C° 0.4 mm 3 mps 726 mmHg 92%
    20:00 -7°C° 0.1 mm 3 mps 726 mmHg 89%
    21:00 -9°C° 0.1 mm 4 mps 727 mmHg 87%
    22:00 -9°C° 0.1 mm 4 mps 727 mmHg 84%
    23:00 -10°C° 0 mm 4 mps 727 mmHg 85%

    Day after tomorrow, 27 November, Monday

    Time Temperature Precipitation Wind Pressure Humidity
    00:00 -11°C° 0 mm 4 mps 728 mmHg 86%
    01:00 -12°C° 0 mm 4 mps 729 mmHg 87%
    02:00 -14°C° 0 mm 4 mps 729 mmHg 87%
    03:00 -13°C° 0 mm 3 mps 730 mmHg 86%
    04:00 -14°C° 0 mm 3 mps 731 mmHg 85%
    05:00 -15°C° 0 mm 3 mps 732 mmHg 86%
    06:00 -15°C° 0 mm 3 mps 732 mmHg 87%
    07:00 -16°C° 0 mm 3 mps 733 mmHg 87%
    08:00 -16°C° 0 mm 3 mps 733 mmHg 86%
    09:00 -16°C° 0 mm 3 mps 734 mmHg 84%
    10:00 -14°C° 0 mm 2 mps 735 mmHg 83%
    11:00 -14°C° 0 mm 2 mps 735 mmHg 81%
    12:00 -13°C° 0 mm 2 mps 735 mmHg 79%
    13:00 -12°C° 0 mm 2 mps 735 mmHg 78%
    14:00 -10°C° 0 mm 1 mps 735 mmHg 80%
    15:00 -10°C° 0 mm 1 mps 735 mmHg 82%
    16:00 -10°C° 0 mm 0 mps 735 mmHg 84%
    17:00 -11°C° 0 mm 1 mps 735 mmHg 86%
    18:00 -11°C° 0 mm 1 mps 735 mmHg 88%
    19:00 -12°C° 0 mm 1 mps 735 mmHg 90%
    20:00 -13°C° 0 mm 2 mps 734 mmHg 90%
    21:00 -13°C° 0 mm 2 mps 734 mmHg 89%
    22:00 -14°C° 0 mm 3 mps 734 mmHg 89%
    23:00 -13°C° 0 mm 3 mps 733 mmHg 86%

    28 November, Tuesday

    Time Temperature Precipitation Wind Pressure Humidity
    00:00 -11°C° 0 mm 4 mps 733 mmHg 83%
    01:00 -10°C° 0 mm 4 mps 732 mmHg 81%
    02:00 -10°C° 0.1 mm 4 mps 731 mmHg 82%
    03:00 -10°C° 0.1 mm 5 mps 730 mmHg 83%
    04:00 -8°C° 0.1 mm 5 mps 729 mmHg 85%
    05:00 -8°C° 0 mm 6 mps 728 mmHg 85%
    06:00 -6°C° 0 mm 6 mps 727 mmHg 86%
    07:00 -5°C° 0 mm 6 mps 725 mmHg 87%
    08:00 -3°C° 0.1 mm 6 mps 725 mmHg 89%
    09:00 -2°C° 0.1 mm 6 mps 724 mmHg 90%
    10:00 +1°C° 0.1 mm 5 mps 724 mmHg 92%
    11:00 +1°C° 0.1 mm 5 mps 723 mmHg 93%
    12:00 +2°C° 0.1 mm 5 mps 723 mmHg 93%
    13:00 +2°C° 0.1 mm 5 mps 722 mmHg 94%
    14:00 +2°C° 0.2 mm 5 mps 722 mmHg 94%
    15:00 +2°C° 0.2 mm 5 mps 722 mmHg 94%
    16:00 +2°C° 0.2 mm 5 mps 721 mmHg 94%
    17:00 +2°C° 0.8 mm 5 mps 722 mmHg 94%
    18:00 +3°C° 0.8 mm 4 mps 722 mmHg 95%
    19:00 +3°C° 0.8 mm 4 mps 722 mmHg 96%
    20:00 +1°C° 0.9 mm 4 mps 722 mmHg 95%
    21:00 +1°C° 0.9 mm 4 mps 722 mmHg 93%
    22:00 0°C° 0.9 mm 4 mps 722 mmHg 92%
    23:00 0°C° 0.3 mm 4 mps 723 mmHg 90%

    29 November, Wednesday

    Time Temperature Precipitation Wind Pressure Humidity
    00:00 -1°C° 0.3 mm 4 mps 724 mmHg 88%
    01:00 -2°C° 0.3 mm 4 mps 724 mmHg 86%
    02:00 -2°C° 0.1 mm 4 mps 726 mmHg 84%
    03:00 -4°C° 0.1 mm 5 mps 727 mmHg 83%
    04:00 -5°C° 0.1 mm 5 mps 728 mmHg 81%
    05:00 -6°C° 0 mm 5 mps 729 mmHg 80%
    06:00 -7°C° 0 mm 5 mps 730 mmHg 78%
    07:00 -8°C° 0 mm 5 mps 731 mmHg 76%
    08:00 -8°C° 0 mm 4 mps 733 mmHg 76%
    09:00 -8°C° 0 mm 4 mps 734 mmHg 75%
    10:00 -8°C° 0 mm 4 mps 735 mmHg 75%
    11:00 -8°C° 0 mm 4 mps 735 mmHg 73%
    12:00 -7°C° 0 mm 4 mps 736 mmHg 72%
    13:00 -5°C° 0 mm 4 mps 736 mmHg 70%
    14:00 -6°C° 0 mm 3 mps 736 mmHg 73%
    15:00 -5°C° 0 mm 2 mps 737 mmHg 76%
    16:00 -5°C° 0 mm 2 mps 737 mmHg 78%
    17:00 -5°C° 0 mm 2 mps 737 mmHg 80%
    18:00 -5°C° 0 mm 2 mps 737 mmHg 82%
    19:00 -6°C° 0 mm 2 mps 737 mmHg 85%
    20:00 -5°C° 0 mm 2 mps 737 mmHg 83%
    21:00 -5°C° 0 mm 2 mps 737 mmHg 82%
    22:00 -5°C° 0 mm 3 mps 737 mmHg 81%
    23:00 -5°C° 0 mm 3 mps 737 mmHg 83%

    30 November, Thursday

    Time Temperature Precipitation Wind Pressure Humidity
    00:00 -5°C° 0 mm 3 mps 736 mmHg 84%
    01:00 -5°C° 0 mm 3 mps 736 mmHg 86%
    02:00 -5°C° 0 mm 3 mps 736 mmHg 87%
    03:00 -5°C° 0 mm 3 mps 735 mmHg 87%
    04:00 -5°C° 0 mm 3 mps 735 mmHg 88%
    05:00 -5°C° 0 mm 3 mps 735 mmHg 88%
    06:00 -4°C° 0 mm 3 mps 734 mmHg 88%
    07:00 -4°C° 0 mm 4 mps 734 mmHg 88%
    08:00 -3°C° 0 mm 4 mps 733 mmHg 86%
    09:00 -2°C° 0 mm 4 mps 733 mmHg 84%
    10:00 -1°C° 0 mm 5 mps 732 mmHg 82%
    11:00 -1°C° 0.1 mm 5 mps 732 mmHg 81%
    12:00 -1°C° 0.1 mm 5 mps 731 mmHg 80%
    13:00 0°C° 0.1 mm 5 mps 730 mmHg 80%
    14:00 0°C° 0.5 mm 4 mps 730 mmHg 82%
    15:00 -1°C° 0.5 mm 4 mps 730 mmHg 84%
    16:00 -1°C° 0.5 mm 4 mps 729 mmHg 87%
    17:00 -1°C° 0.3 mm 4 mps 729 mmHg 87%
    18:00 0°C° 0.3 mm 3 mps 729 mmHg 88%
    19:00 0°C° 0.3 mm 3 mps 729 mmHg 89%
    20:00 0°C° 0 mm 3 mps 729 mmHg 89%
    21:00 0°C° 0 mm 3 mps 729 mmHg 89%
    22:00 -1°C° 0 mm 3 mps 729 mmHg 90%
    23:00 -1°C° 0.1 mm 3 mps 729 mmHg 89%
    Show more